Wind_Speed
57 67 70 70 67 60 55 51 46 39 31 29 31 36 34 36 26 21 16 9 9 8 10 17 21 22 25 31 29 32 35 37 38 38 35 30 27 25 24 25 29 21 15 17
58 61 72 75 73 65 61 57 51 49 38 35 40 35 30 31 34 27 16 15 11 5 6 15 18 18 20 28 29 26 28 30 35 38 37 32 27 27 24 22 19 16 16 15
64 66 72 78 76 69 65 59 55 53 43 37 42 38 33 35 34 28 16 15 13 7 5 10 15 15 15 20 27 22 23 25 29 33 36 35 29 25 26 24 22 23 20 15
71 71 72 79 78 76 69 61 55 53 52 41 34 31 34 38 37 32 25 25 26 14 9 8 11 14 13 14 21 23 19 21 23 27 30 31 29 27 24 22 23 20 20 18
76 73 71 77 79 78 73 66 61 56 48 43 28 33 41 30 35 35 30 25 26 20 12 6 9 11 9 8 13 18 15 15 23 22 23 25 28 27 26 24 21 20 16 15
83 82 75 76 81 82 80 73 66 63 61 57 35 38 35 39 37 31 37 26 22 26 16 15 14 14 9 7 8 14 12 12 16 19 20 21 24 25 27 25 22 18 16 14
75 79 79 80 79 79 81 76 70 67 69 74 46 38 43 45 42 40 38 34 30 32 25 18 15 13 7 7 4 10 12 9 11 11 14 17 19 19 23 25 24 22 18 15
75 78 75 74 77 77 82 77 74 72 72 69 69 44 49 50 38 40 40 35 31 31 28 20 16 13 13 8 3 3 9 10 6 5 7 12 12 15 18 18 19 18 19 18
77 79 78 80 80 82 81 78 81 76 72 68 67 70 41 48 48 39 39 35 32 32 29 23 21 17 13 15 9 9 8 6 6 1 1 5 6 7 11 13 14 16 17 19
73 74 74 77 80 80 79 84 85 82 80 79 73 72 66 57 54 45 36 37 40 36 30 30 27 24 19 16 21 21 14 9 7 5 6 4 3 7 11 10 8 12 12 14
65 67 71 74 77 77 77 81 87 89 87 87 81 72 73 65 59 50 46 48 47 48 41 38 38 33 26 23 25 27 22 18 13 8 9 12 8 6 5 8 5 4 7 7
62 64 67 68 73 77 78 80 87 90 92 92 89 89 84 61 71 58 42 37 52 45 44 38 40 41 36 32 32 27 34 33 24 17 14 15 15 13 8 8 6 6 6 4
56 61 67 71 72 78 79 81 86 91 94 96 96 93 84 64 60 65 60 45 46 50 46 45 43 47 49 42 39 29 26 25 28 33 22 15 21 20 17 13 10 9 10 9
57 61 62 65 68 73 74 74 78 88 92 95 99 96 87 70 65 65 66 60 46 41 49 54 52 60 59 52 44 35 36 32 21 29 30 25 21 24 22 22 20 17 15 17
54 58 59 62 66 70 75 76 74 78 86 98 102 98 90 85 72 75 74 54 45 62 68 61 57 64 62 56 51 45 35 24 10 16 28 28 25 23 27 27 26 26 23 20
50 56 59 63 67 70 74 76 78 76 82 93 98 95 90 88 91 84 78 72 54 50 64 67 58 55 55 59 63 50 47 48 33 31 40 37 20 23 32 30 31 29 29 29
46 48 53 63 65 67 70 75 78 78 86 92 89 86 90 94 94 92 92 79 67 61 23 42 70 76 63 65 56 49 47 48 54 54 54 50 42 40 42 36 33 38 34 34
47 45 47 57 62 67 68 72 78 83 91 85 79 77 82 89 89 91 94 88 83 85 35 43 42 43 55 59 55 55 57 58 60 53 52 64 62 47 38 38 39 31 35 39
47 49 51 55 57 65 66 70 77 82 83 82 79 78 76 80 81 87 92 93 92 80 73 49 56 60 60 67 72 67 70 68 70 72 71 69 70 66 59 53 47 44 44 38
44 46 48 57 60 61 62 65 72 77 77 84 82 84 83 80 80 84 93 97 97 97 87 70 57 66 77 77 77 75 75 77 80 79 80 76 77 76 72 67 64 62 58 54
47 50 54 55 57 58 60 63 67 70 73 77 79 80 81 86 90 90 91 97 102 102 111 104 90 67 77 83 85 82 85 85 82 82 85 85 85 83 81 78 75 73 71 68
52 55 57 60 63 59 62 63 67 65 68 71 75 78 81 84 89 93 97 95 96 106 109 113 110 105 85 82 82 89 93 89 89 88 86 85 87 89 88 87 84 80 78 76
59 62 64 66 69 69 66 68 69 70 69 69 70 64 69 81 85 88 93 96 97 97 103 112 117 121 112 105 84 80 79 81 93 93 93 93 92 89 89 89 89 86 83 84
25 45 70 77 75 74 73 71 72 73 71 72 69 59 55 65 79 85 91 88 91 99 100 103 106 112 115 113 120 108 110 103 97 92 94 100 100 101 97 94 90 90 90 88
14 34 47 53 58 71 78 78 77 75 74 80 76 69 65 66 64 72 85 90 93 85 85 98 100 112 115 117 115 108 100 107 111 108 106 100 108 107 104 100 100 98 95 93
13 14 17 27 32 41 58 68 78 78 81 84 73 70 66 67 72 73 73 80 90 96 91 92 98 102 106 107 110 106 102 100 102 102 105 106 104 113 112 110 108 105 104 103
Wind_Direction
232 224 224 224 222 218 212 212 210 211 206 221 236 235 240 244 251 243 242 226 281 330 360 12 16 19 26 38 36 42 45 46 50 52 59 68 79 86 105 117 118 130 123 139
233 227 221 221 221 218 215 209 205 208 207 221 222 215 229 237 241 248 244 236 238 283 350 12 8 19 23 25 35 40 43 46 47 47 53 62 75 83 93 104 116 128 120 111
229 224 221 218 219 217 217 209 207 206 204 214 215 239 229 232 234 232 227 212 221 263 293 1 347 7 22 21 29 33 36 42 39 43 44 51 63 75 83 95 97 101 101 104
221 219 219 215 215 215 215 211 204 209 213 217 223 229 242 219 219 227 220 221 238 231 249 309 341 359 14 17 20 31 37 40 35 39 40 41 52 67 72 79 85 98 99 104
215 216 217 215 214 213 212 210 202 202 205 192 204 220 224 208 215 214 213 217 233 231 242 268 310 333 358 5 21 25 35 41 42 39 40 43 42 52 62 69 78 89 95 98
214 214 215 212 212 211 209 209 200 199 197 198 195 201 215 204 211 211 213 208 220 216 224 260 276 286 314 335 4 33 32 49 54 44 33 38 45 52 58 60 66 73 77 83
206 209 210 209 211 209 210 206 201 199 204 205 197 195 195 207 215 207 210 206 208 221 228 244 259 254 289 325 328 25 29 21 59 62 50 44 43 50 57 63 65 67 69 66
198 202 205 207 208 207 208 205 205 203 206 212 208 206 193 207 207 213 207 207 218 222 229 225 241 254 269 253 309 324 5 9 9 64 82 79 55 46 60 66 73 70 74 73
195 194 198 201 203 206 204 204 208 203 205 203 208 206 206 206 203 209 214 215 214 217 219 221 239 242 232 255 256 255 295 327 349 279 258 92 95 79 79 72 74 81 83 88
197 197 196 202 201 204 202 203 206 206 201 198 202 209 205 195 202 211 218 226 229 231 228 226 229 244 245 242 246 244 272 266 287 305 264 242 145 125 111 97 86 86 92 91
199 202 200 204 202 203 203 206 206 205 205 202 202 202 207 215 221 228 243 245 237 235 237 248 241 243 245 248 252 254 255 247 248 264 269 264 242 218 218 148 118 117 104 87
203 202 200 207 208 206 205 206 208 209 207 209 213 216 218 226 233 230 210 215 225 233 230 232 237 237 246 256 262 260 266 247 241 244 253 253 243 234 222 220 226 212 188 162
207 208 207 206 207 207 207 209 209 210 211 212 212 216 218 219 219 209 212 217 222 231 237 234 237 239 249 255 257 251 241 249 246 256 248 249 253 251 244 229 231 226 219 210
211 209 208 212 213 210 211 214 214 214 213 216 217 213 214 207 212 208 211 218 214 219 233 240 237 242 250 251 249 244 252 222 259 255 247 248 249 246 250 253 252 243 238 231
217 212 211 213 214 215 214 214 216 219 220 220 219 217 211 208 204 207 208 217 234 244 250 245 243 239 249 249 245 237 224 202 223 259 254 247 253 247 253 251 251 247 247 246
221 217 216 217 216 217 215 217 220 219 223 224 223 219 217 215 215 214 219 223 223 244 247 238 242 247 249 245 242 235 231 223 259 224 249 248 245 243 261 259 251 251 248 250
219 220 221 223 224 220 218 219 222 223 226 229 224 223 219 219 217 219 225 223 221 221 261 251 240 245 242 244 237 233 229 219 225 241 240 246 249 244 248 258 256 251 251 250
223 222 219 223 222 226 223 220 222 225 227 228 229 224 225 224 224 222 223 222 219 215 231 220 227 232 231 226 224 225 230 228 228 231 233 238 243 237 242 240 242 238 246 251
221 223 217 221 224 227 227 227 226 226 229 227 230 227 227 226 222 223 227 225 219 217 222 216 214 221 226 226 226 230 232 231 231 232 235 238 239 244 246 241 243 244 240 233
222 223 225 224 224 224 222 226 231 230 231 233 229 230 226 226 226 225 224 224 223 219 216 221 229 226 226 226 227 228 233 235 237 236 238 240 242 244 245 245 246 246 247 248
226 226 225 226 230 228 228 227 229 233 231 234 230 230 229 229 228 225 225 226 224 221 223 228 225 228 233 228 229 232 234 235 237 238 240 242 242 245 248 247 247 247 247 250
227 231 232 233 231 227 231 231 230 233 237 237 234 231 231 231 230 230 230 229 227 226 224 229 233 230 234 236 231 232 235 236 238 241 243 243 244 245 246 247 248 246 247 248
238 236 235 235 236 233 229 232 233 233 235 236 238 235 233 231 230 232 231 231 230 230 230 229 231 234 236 233 232 233 233 236 238 241 244 244 245 245 246 247 249 249 248 247
235 243 241 239 236 236 231 232 235 236 238 241 237 230 232 236 234 231 232 231 232 232 229 231 233 234 236 237 236 245 243 243 243 245 244 245 245 246 246 247 247 249 249 249
277 254 255 255 245 237 236 232 232 234 236 236 237 237 234 238 240 236 232 233 231 228 230 233 234 235 236 237 238 241 245 245 247 247 245 247 245 245 246 248 250 249 249 250
340 338 280 254 247 237 233 230 231 235 237 238 236 237 238 238 241 241 240 237 234 227 220 224 228 232 233 236 239 241 242 240 241 243 243 244 247 245 246 247 249 250 251 252
Height
10884 10898 10912 10920 10928 10942 10956 10967 10974 10980 10986 10989 10992 10996 10999 11003 11004 11007 11011 11015 11018 11020 11020 11018 11017 11015 11012 11008 11005 11002 10997 10994 10988 10983 10981 10980 10978 10980 10981 10983 10984 10986 10990 10991
10875 10886 10893 10903 10915 10930 10942 10953 10964 10970 10978 10980 10987 10991 10995 10999 11001 11003 11009 11013 11017 11019 11021 11020 11019 11018 11016 11013 11010 11008 11004 10999 10995 10992 10989 10988 10987 10987 10986 10986 10987 10988 10990 10990
10860 10863 10873 10887 10904 10919 10927 10942 10954 10962 10969 10974 10980 10985 10991 10993 10997 11001 11006 11011 11014 11017 11020 11020 11021 11020 11019 11018 11015 11012 11010 11006 11002 11000 10997 10994 10992 10991 10992 10993 10992 10993 10992 10990
10837 10845 10858 10873 10890 10902 10917 10935 10948 10956 10964 10973 10979 10978 10983 10986 10991 10997 11003 11007 11009 11015 11018 11019 11021 11022 11021 11021 11018 11017 11014 11011 11009 11007 11004 11002 10999 10997 10996 10997 10997 10997 10997 10996
10818 10831 10846 10861 10877 10891 10905 10921 10936 10948 10957 10968 10968 10970 10977 10980 10984 10990 10996 11001 11005 11011 11017 11018 11018 11021 11022 11021 11020 11019 11018 11015 11014 11013 11011 11009 11007 11004 11003 11000 10999 11001 11001 11000
10795 10813 10831 10849 10861 10875 10890 10904 10924 10937 10946 10953 10960 10965 10967 10974 10979 10985 10991 10996 11001 11007 11014 11017 11020 11021 11021 11021 11021 11020 11020 11019 11017 11016 11015 11014 11013 11011 11010 11009 11005 11004 11004 11003
10783 10803 10817 10833 10852 10869 10880 10897 10914 10923 10928 10939 10951 10953 10961 10966 10970 10977 10983 10989 10997 11004 11008 11012 11018 11020 11020 11021 11022 11021 11021 11021 11020 11019 11019 11019 11018 11016 11016 11015 11013 11009 11009 11008
10767 10790 10813 10832 10844 10854 10868 10889 10899 10909 10921 10928 10943 10947 10954 10960 10967 10973 10977 10983 10990 10997 11003 11009 11014 11017 11017 11021 11022 11023 11023 11023 11023 11023 11021 11022 11024 11024 11022 11021 11020 11016 11014 11013
10758 10776 10794 10806 10822 10837 10858 10875 10880 10899 10907 10920 10929 10937 10942 10950 10958 10967 10973 10979 10985 10992 10998 11003 11010 11014 11015 11017 11020 11022 11023 11022 11023 11023 11023 11023 11024 11026 11027 11027 11026 11025 11021 11019
10759 10774 10791 10798 10810 10827 10846 10853 10869 10883 10892 10903 10914 10923 10930 10937 10950 10959 10965 10973 10981 10986 10994 11000 11005 11011 11013 11015 11017 11019 11021 11022 11023 11024 11024 11024 11024 11026 11028 11030 11030 11029 11028 11026
10762 10772 10786 10794 10808 10821 10834 10846 10857 10866 10881 10893 10904 10913 10920 10927 10941 10955 10961 10967 10972 10978 10987 10992 11001 11006 11011 11012 11012 11014 11017 11020 11021 11022 11024 11025 11025 11025 11027 11029 11030 11031 11031 11030
10755 10766 10777 10791 10801 10814 10821 10831 10843 10857 10869 10877 10887 10895 10908 10921 10931 10950 10956 10954 10962 10969 10977 10985 10991 10998 11003 11008 11007 11011 11011 11013 11018 11017 11020 11022 11023 11025 11025 11027 11028 11031 11032 11032
10753 10759 10770 10775 10786 10796 10807 10817 10828 10842 10852 10863 10871 10884 10906 10919 10929 10935 10942 10946 10957 10964 10969 10975 10981 10987 10993 10998 11003 11007 11008 11010 11013 11016 11016 11018 11021 11024 11025 11024 11026 11029 11030 11032
10739 10750 10763 10775 10787 10796 10806 10818 10829 10832 10843 10850 10856 10872 10891 10909 10917 10918 10933 10937 10946 10956 10958 10966 10974 10976 10982 10988 10994 11000 11002 11004 11008 11010 11012 11013 11016 11018 11020 11024 11024 11026 11029 11030
10735 10747 10759 10766 10773 10786 10796 10805 10812 10822 10830 10824 10834 10857 10884 10897 10900 10910 10918 10928 10943 10950 10951 10955 10961 10966 10974 10978 10982 10992 10997 11002 11006 11003 11007 11009 11010 11013 11016 11017 11020 11022 11024 11026
10727 10739 10750 10754 10760 10770 10781 10791 10798 10806 10802 10801 10824 10853 10878 10891 10898 10905 10909 10923 10941 10946 10945 10943 10946 10954 10960 10965 10971 10980 10989 11001 11004 10989 10991 11003 11005 11006 11009 11012 11014 11018 11019 11020
10717 10727 10738 10743 10752 10762 10769 10777 10788 10792 10781 10786 10817 10846 10862 10867 10882 10891 10897 10916 10927 10932 10929 10928 10932 10941 10949 10953 10957 10964 10972 10983 10987 10989 10991 10993 10996 10998 11000 11004 11006 11010 11012 11015
10710 10717 10727 10728 10739 10744 10755 10763 10764 10763 10764 10787 10809 10829 10838 10855 10873 10882 10881 10897 10904 10912 10919 10919 10922 10929 10935 10937 10941 10944 10950 10957 10963 10968 10972 10974 10979 10985 10987 10992 10996 10999 11002 11006
10701 10706 10712 10716 10724 10726 10739 10748 10749 10754 10759 10783 10793 10812 10825 10836 10849 10858 10863 10871 10882 10897 10901 10901 10903 10911 10917 10915 10918 10927 10933 10941 10945 10947 10952 10958 10963 10967 10974 10983 10985 10988 10991 10992
10693 10697 10703 10705 10706 10714 10724 10731 10735 10741 10752 10757 10779 10790 10803 10812 10822 10835 10837 10844 10859 10872 10876 10877 10879 10887 10888 10894 10898 10905 10912 10922 10929 10934 10936 10940 10945 10950 10958 10965 10970 10975 10977 10979
10682 10684 10685 10689 10697 10707 10715 10720 10722 10726 10735 10739 10760 10770 10779 10788 10798 10803 10808 10821 10834 10849 10851 10854 10861 10867 10873 10875 10881 10887 10894 10903 10909 10913 10918 10923 10929 10935 10941 10948 10953 10959 10962 10964
10668 10671 10674 10679 10680 10692 10698 10707 10710 10714 10715 10727 10736 10745 10759 10771 10778 10782 10791 10800 10815 10823 10834 10838 10840 10846 10851 10857 10862 10867 10876 10884 10890 10896 10901 10906 10912 10918 10924 10929 10934 10940 10944 10947
10657 10658 10658 10660 10663 10671 10684 10686 10692 10693 10701 10707 10712 10738 10748 10747 10749 10759 10772 10782 10791 10801 10810 10812 10815 10820 10830 10837 10843 10849 10856 10862 10871 10878 10884 10890 10895 10898 10904 10909 10914 10920 10924 10928
10639 10637 10634 10635 10647 10650 10662 10670 10670 10676 10688 10690 10701 10722 10725 10724 10735 10742 10747 10758 10765 10775 10782 10789 10793 10798 10805 10813 10822 10827 10835 10842 10848 10858 10863 10870 10872 10876 10883 10889 10893 10896 10900 10905
10630 10625 10620 10619 10620 10625 10634 10646 10650 10658 10664 10665 10681 10697 10707 10708 10711 10720 10729 10736 10743 10751 10757 10763 10768 10773 10778 10785 10795 10802 10808 10813 10821 10829 10838 10844 10848 10853 10859 10866 10869 10872 10877 10883
10623 10615 10609 10605 10604 10607 10613 10627 10637 10643 10644 10647 10669 10682 10689 10693 10695 10700 10705 10712 10720 10730 10733 10736 10741 10747 10754 10762 10768 10775 10780 10787 10795 10802 10807 10816 10820 10825 10832 10839 10842 10845 10850 10854